Regional Weather Roundup
Issued by NWS

Home | Current Version | Previous Version | Text Only | Print | Product List | Glossary Off
Versions: 1 2 3 4 5 6 7 8 9 10 11 12 13 14 15 16 17 18 19 20 21 22 23 24 25 26 27 28 29 30 31 32 33 34 35 36 37 38 39 40 41 42 43 44 45 46 47 48 49 50

492
ASUS43 KBIS 171702
RWRND

NORTH DAKOTA REGIONAL WEATHER ROUNDUP
NATIONAL WEATHER SERVICE BISMARCK ND
1200 PM CDT THU AUG 17 2017

NOTE: "FAIR" INDICATES FEW OR NO CLOUDS BELOW 12,000 FEET WITH NO
SIGNIFICANT WEATHER AND/OR OBSTRUCTIONS TO VISIBILITY.


NDZ001>003-009>011-017-171800-
NORTHWEST NORTH DAKOTA

CITY           SKY/WX    TMP DP  RH WIND       PRES   REMARKS
WILLISTON      MOSUNNY   74  55  51 CALM      29.84F
MINOT          PTSUNNY   81  49  32 SE13      29.87S
MINOT AFB      PTSUNNY   79  50  35 S10       29.85S
$$

NDZ018>021-031>035-040>046-171800-
SOUTHWEST NORTH DAKOTA

CITY           SKY/WX    TMP DP  RH WIND       PRES   REMARKS
BISMARCK       SUNNY     78  53  41 SE12      29.90F
DICKINSON      SUNNY     77  52  41 SW8       29.87S
GARRISON         N/A     75  61  61 S10       29.87F
HETTINGER ARPT SUNNY     77  52  41 S7        29.91S
$$

NDZ004>008-012>016-024-026-027-054-171800-
NORTHEAST NORTH DAKOTA

CITY           SKY/WX    TMP DP  RH WIND       PRES   REMARKS
GRAND FORKS    MOSUNNY   70  63  78 NW8       29.84S
GRND FRKS AFB  MOSUNNY   71  62  72 N3        29.86R
DEVILS LAKE    SUNNY     73  57  57 NW8       29.90R
$$

NDZ022-023-025-028>030-036>039-047>053-171800-
SOUTHEAST NORTH DAKOTA

CITY           SKY/WX    TMP DP  RH WIND       PRES   REMARKS
FARGO          MOSUNNY   72  63  73 N10       29.83S
JAMESTOWN      SUNNY     74  57  55 VRB3      29.89R
$$





USA.gov is the U.S. government's official web portal to all federal, state and local government web resources and services.